Weather History for EICK - November, 2012

Change the Weather History Date:

Tuesday, November 6, 2012

  Actual Average Record
Temperature  
Mean Temperature 46 °F -  
Max Temperature 51 °F 49 °F 57 °F (2003)
Min Temperature 40 °F 40 °F 37 °F (2011)
Degree Days  
Heating Degree Days 20    
Moisture  
Dew Point 41 °F    
Average Humidity 86    
Maximum Humidity 100    
Minimum Humidity 68    
Precipitation  
Precipitation 0.00 in 0.15 in - ()
Sea Level Pressure  
Sea Level Pressure 30.27 in    
Wind  
Wind Speed 9 mph ()    
Max Wind Speed 23 mph    
Max Gust Speed -    
Visibility 7.1 miles    
Events      
Averages and records for this station are not official NWS values.
T = Trace of Precipitation, MM = Missing Value Source: Averaged Metar Reports

Daily Weather History Graph

Daily Weather History Graph

Search for Another Location

Airport or City:

Trip Planner

Search our weather history database for the weather conditions in past years. The results will help you decide how hot, cold, wet, or windy it might be!

Date:

Astronomy

Nov. 06, 2012 Rise Set
Actual Time 7:37 AM GMT 4:56 PM GMT
Civil Twilight 7:01 AM GMT 5:32 PM GMT
Nautical Twilight 6:21 AM GMT 6:12 PM GMT
Astronomical Twilight 5:42 AM GMT 6:51 PM GMT
Moon 11:28 PM GMT (11/6) 1:18 PM GMT (11/6)
Length of Visible Light 10h 30m
Length of Day
9h 18m
Waning Gibbous, 55% of the Moon is Illuminated
Nov 6
Waning Gibbous
Nov 7
Last Quarter
Nov 13
New
Nov 20
First Quarter
Nov 28
Full

Hourly Weather History & Observations

Time (GMT) Temp. Windchill Dew Point Humidity Pressure Visibility Wind Dir Wind Speed Gust Speed Precip Events Conditions
12:00 AM 40 °F - 38 °F 88% 30.22 in 19 mi WNW 8.9 mph - -   Scattered Clouds
12:00 AM 41.0 °F 35.2 °F 37.4 °F 87% 30.18 in 6.2 mi WNW 9.2 mph - N/A   Partly Cloudy
12:30 AM 41.0 °F 36.4 °F 37.4 °F 87% 30.18 in 6.2 mi West 6.9 mph - N/A   Mostly Cloudy
1:00 AM 41.0 °F 37.1 °F 37.4 °F 87% 30.21 in 6.2 mi West 5.8 mph - N/A   Partly Cloudy
1:30 AM 41.0 °F 37.1 °F 37.4 °F 87% 30.21 in 6.2 mi West 5.8 mph - N/A   Partly Cloudy
2:00 AM 41.0 °F 35.8 °F 37.4 °F 87% 30.21 in 6.2 mi West 8.1 mph - N/A   Partly Cloudy
2:30 AM 41.0 °F 35.2 °F 39.2 °F 93% 30.21 in 6.2 mi WNW 9.2 mph - N/A   Scattered Clouds
3:00 AM 42.8 °F 38.6 °F 39.2 °F 87% 30.21 in 6.2 mi West 6.9 mph - N/A   Mostly Cloudy
3:30 AM 42.8 °F 38.6 °F 41.0 °F 93% 30.21 in 6.2 mi West 6.9 mph - N/A   Mostly Cloudy
4:00 AM 42.8 °F 39.3 °F 41.0 °F 93% 30.21 in 6.2 mi WSW 5.8 mph - N/A   Mostly Cloudy
4:30 AM 42.8 °F 39.3 °F 41.0 °F 93% 30.21 in 6.2 mi WSW 5.8 mph - N/A   Mostly Cloudy
5:00 AM 42.8 °F 39.3 °F 41.0 °F 93% 30.21 in 6.2 mi WSW 5.8 mph - N/A   Mostly Cloudy
5:30 AM 42.8 °F 38.6 °F 41.0 °F 93% 30.21 in 6.2 mi SW 6.9 mph - N/A   Mostly Cloudy
6:00 AM 42 °F - 41 °F 93% 30.26 in 19 mi SSW 6.7 mph - -   Mostly Cloudy
6:00 AM 42.8 °F 39.3 °F 41.0 °F 93% 30.21 in 6.2 mi SSW 5.8 mph - N/A   Mostly Cloudy
6:30 AM 41.0 °F 38.0 °F 41.0 °F 100% 30.24 in 6.2 mi SW 4.6 mph - N/A   Mostly Cloudy
7:00 AM 41.0 °F - 41.0 °F 100% 30.24 in 6.2 mi South 2.3 mph - N/A   Mostly Cloudy
7:30 AM 41.0 °F 39.0 °F 41.0 °F 100% 30.24 in 6.2 mi SSW 3.5 mph - N/A   Mostly Cloudy
8:00 AM 42.8 °F 40.1 °F 41.0 °F 93% 30.24 in 6.2 mi SSW 4.6 mph - N/A   Mostly Cloudy
8:30 AM 46.4 °F 40.7 °F 42.8 °F 87% 30.24 in 6.2 mi West 12.7 mph - N/A   Mostly Cloudy
9:00 AM 46.4 °F 41.9 °F 42.8 °F 87% 30.27 in 6.2 mi West 9.2 mph - N/A   Mostly Cloudy
9:30 AM 46.4 °F 43.5 °F 42.8 °F 87% 30.27 in 6.2 mi WSW 5.8 mph - N/A   Mostly Cloudy
10:00 AM 46.4 °F 41.9 °F 42.8 °F 87% 30.27 in 6.2 mi WSW 9.2 mph - N/A   Mostly Cloudy
10:30 AM 48.2 °F - 44.6 °F 87% 30.27 in 6.2 mi WNW 13.8 mph - N/A   Mostly Cloudy
11:00 AM 48.2 °F - 42.8 °F 82% 30.27 in 6.2 mi WNW 17.3 mph - N/A   Mostly Cloudy
11:30 AM 51.8 °F - 42.8 °F 71% 30.27 in 6.2 mi West 18.4 mph - N/A   Mostly Cloudy
12:00 PM 50 °F - 43 °F 68% 30.30 in 19 mi WNW 15.7 mph - -   Partly Cloudy
12:00 PM 50.0 °F - 42.8 °F 76% 30.27 in 6.2 mi WNW 16.1 mph - N/A   Mostly Cloudy
12:30 PM 50.0 °F - 42.8 °F 76% 30.27 in 6.2 mi WNW 16.1 mph - N/A   Mostly Cloudy
1:00 PM 50.0 °F - 42.8 °F 76% 30.27 in 6.2 mi WNW 23.0 mph - N/A   Mostly Cloudy
1:30 PM 50.0 °F - 42.8 °F 76% 30.27 in 6.2 mi WNW 20.7 mph - N/A   Mostly Cloudy
2:00 PM 50.0 °F - 42.8 °F 76% 30.27 in 6.2 mi WNW 18.4 mph - N/A   Mostly Cloudy
2:30 PM 50.0 °F - 42.8 °F 76% 30.27 in 6.2 mi WNW 17.3 mph - N/A   Mostly Cloudy
3:00 PM 50.0 °F - 42.8 °F 76% 30.27 in 6.2 mi WNW 17.3 mph - N/A   Mostly Cloudy
3:30 PM 48.2 °F - 42.8 °F 82% 30.27 in 6.2 mi NW 16.1 mph - N/A   Mostly Cloudy
4:00 PM 48.2 °F - 42.8 °F 82% 30.30 in 6.2 mi NW 16.1 mph - N/A   Scattered Clouds
4:30 PM 48.2 °F - 41.0 °F 76% 30.30 in 6.2 mi NW 16.1 mph - N/A   Scattered Clouds
5:00 PM 46.4 °F 39.8 °F 42.8 °F 87% 30.30 in 6.2 mi WNW 16.1 mph - N/A   Scattered Clouds
5:30 PM 46.4 °F 41.9 °F 41.0 °F 81% 30.30 in 6.2 mi NW 9.2 mph - N/A   Scattered Clouds
6:00 PM 46 °F - 41 °F 78% 30.33 in 12 mi NW 6.7 mph - -   Scattered Clouds
6:00 PM 46.4 °F 42.9 °F 41.0 °F 81% 30.30 in 6.2 mi NW 6.9 mph - N/A   Scattered Clouds
6:30 PM 46.4 °F 40.1 °F 41.0 °F 81% 30.30 in 6.2 mi NW 15.0 mph - N/A   Mostly Cloudy
7:00 PM 44.6 °F 41.4 °F 41.0 °F 87% 30.33 in 6.2 mi West 5.8 mph - N/A   Mostly Cloudy
7:30 PM 44.6 °F 38.8 °F 41.0 °F 87% 30.33 in 6.2 mi NNW 11.5 mph - N/A   Scattered Clouds
8:00 PM 44.6 °F 38.4 °F 41.0 °F 87% 30.33 in 6.2 mi WNW 12.7 mph - N/A   Partly Cloudy
8:30 PM 44.6 °F 40.7 °F 41.0 °F 87% 30.33 in 6.2 mi WNW 6.9 mph - N/A   Partly Cloudy
9:00 PM 42.8 °F 38.0 °F 41.0 °F 93% 30.33 in - West 8.1 mph - N/A   Clear
9:30 PM 42.8 °F 37.5 °F 39.2 °F 87% 30.33 in - West 9.2 mph - N/A   Clear
10:00 PM 42.8 °F 37.0 °F 39.2 °F 87% 30.33 in - West 10.4 mph - N/A   Clear
10:30 PM 41.0 °F 35.8 °F 39.2 °F 93% 30.33 in 6.2 mi WNW 8.1 mph - N/A   Partly Cloudy
11:00 PM 41.0 °F 35.2 °F 39.2 °F 93% 30.33 in 6.2 mi West 9.2 mph - N/A   Partly Cloudy
11:30 PM 42.8 °F 39.3 °F 39.2 °F 87% 30.33 in 6.2 mi West 5.8 mph - N/A   Mostly Cloudy